Location: *
(2.5500°S, 65.9667°W)
Time: 14:36:07
(UTC+00:00)

SRMSAT - Pass Details

Date: 30 June 2022
Orbit: 848 x 865 km, 20.0° (Epoch: 18 August)

Event Time Altitude Azimuth Distance (km) Brightness Sun altitude
Rises 01:25:13 0° 297° (WNW) 3,407 ? -41.3°
Reaches altitude 10° 01:30:12 10° 333° (NNW) 2,464 ? -42.4°
Enters shadow 01:31:22 11° 345° (NNW) 2,404 ? -42.7°
